This demonstration page uses our WeatherBlox Daily Observations layout. Learn more.

Left ArrowRight Arrow

40.92945, -100.16068

Hourly Observations for October 13, 2021

Temp ( °F °C ) Dew Point ( °F °C ) Humidity (%) Winds ( mph kmh ) Pressure ( in mb ) Visibility ( mi km ) Precip ( " mm )
12:15 am 00:15 Cloudy 55 12.9 54 12.3 96 96 ESE 16 26 29.56 1001 10 16 0.02 0.51
12:35 am 00:35 Cloudy with Thunderstorms 55 12.6 54 12 96 96 E 15 24 29.51 999 7 11 0.07 1.78
12:55 am 00:55 Cloudy with Light Rain 55 12.5 53 11.5 94 94 SE 12 19 29.53 1000 10 16 0.09 2.29
1:15 am 01:15 Cloudy 55 12.7 54 12 96 96 SE 14 22 29.55 1001 10 16 N/A
1:35 am 01:35 Cloudy 55 13 54 12.2 95 95 SE 10 17 29.53 1000 10 16 N/A
1:55 am 01:55 Cloudy 56 13.2 54 12.4 95 95 SE 10 17 29.52 1000 10 16 N/A
2:15 am 02:15 Cloudy 56 13.2 55 12.5 96 96 SE 12 19 29.49 999 10 16 N/A
2:35 am 02:35 Cloudy with Light Rain 56 13.5 55 12.7 95 95 SE 14 22 29.45 997 10 16 N/A
2:55 am 02:55 Cloudy 56 13.5 55 12.7 95 95 SE 17 28 29.42 996 10 16 N/A
3:15 am 03:15 Cloudy 56 13.3 55 12.7 96 96 SE 16 26 29.40 996 10 16 N/A
3:35 am 03:35 Cloudy 56 13.5 55 12.8 96 96 SE 18 30 29.41 996 10 16 N/A
3:55 am 03:55 Cloudy 56 13.1 55 12.5 96 96 SSE 20 31 29.41 996 10 16 N/A
4:15 am 04:15 Cloudy 56 13.1 55 12.5 96 96 SSE 21 33 29.41 996 10 16 N/A
4:35 am 04:35 Cloudy 56 13.1 55 12.5 96 96 S 17 28 29.43 997 7 11 N/A
4:55 am 04:55 Cloudy 55 12.6 51 10.7 88 88 SW 21 33 29.45 997 10 16 N/A
5:15 am 05:15 Partly Cloudy 53 11.5 47 8.5 82 82 SSW 18 30 29.47 998 10 16 N/A
5:35 am 05:35 Mostly Cloudy 51 10.3 46 8 86 86 SW 21 33 29.50 999 10 16 0.01 0.25
5:55 am 05:55 Partly Cloudy 47 8.1 43 5.9 86 86 WSW 17 28 29.53 1000 10 16 0.01 0.25
6:15 am 06:15 Clear 45 7.2 41 5.2 87 87 WSW 17 28 29.55 1001 10 16 N/A
6:35 am 06:35 Clear 44 6.8 41 4.9 88 88 WSW 20 31 29.55 1001 10 16 N/A
6:55 am 06:55 Clear 44 6.4 39 3.9 84 84 W 18 30 29.57 1001 10 16 N/A
7:15 am 07:15 Clear 43 5.9 38 3.3 84 84 W 16 26 29.58 1002 10 16 N/A
7:35 am 07:35 Clear 41 5.2 36 2.2 81 81 W 22 35 29.60 1002 10 16 N/A
7:55 am 07:55 Sunny 41 4.9 35 1.7 80 80 W 17 28 29.61 1003 10 16 N/A
8:15 am 08:15 Sunny 41 4.8 34 1.3 78 78 W 16 26 29.61 1003 10 16 N/A
8:35 am 08:35 Sunny 41 5.2 34 0.9 74 74 W 16 26 29.62 1003 10 16 N/A
8:55 am 08:55 Sunny 43 6 34 0.9 70 70 WSW 18 30 29.63 1003 10 16 N/A
9:15 am 09:15 Sunny 44 6.6 34 1.1 68 68 W 22 35 29.62 1003 10 16 N/A
9:35 am 09:35 Sunny 45 7.2 34 1 65 65 W 26 43 29.63 1003 10 16 N/A
9:55 am 09:55 Sunny 46 7.8 34 1 62 62 W 24 39 29.62 1003 10 16 N/A
10:15 am 10:15 Sunny 47 8.2 34 1 61 61 W 31 50 29.62 1003 10 16 N/A
10:35 am 10:35 Partly Cloudy 48 9 34 1.3 59 59 W 26 43 29.63 1003 10 16 N/A
10:55 am 10:55 Partly Cloudy 49 9.5 35 1.7 59 59 W 39 63 29.62 1003 10 16 N/A
11:15 am 11:15 Partly Cloudy 50 9.9 34 1.1 55 55 W 39 63 29.61 1003 10 16 N/A
11:35 am 11:35 Partly Cloudy 50 10.2 34 1 53 53 W 35 56 29.61 1003 10 16 N/A
11:55 am 11:55 Partly Cloudy 51 10.8 35 1.4 53 53 W 28 44 29.61 1003 10 16 N/A
12:15 pm 12:15 Sunny 53 11.5 33 0.8 48 48 W 36 57 29.61 1003 10 16 N/A
12:35 pm 12:35 Sunny 54 12.2 33 0.5 45 45 W 39 63 29.61 1003 10 16 N/A
12:55 pm 12:55 Sunny 55 12.7 33 0.6 44 44 W 33 54 29.62 1003 10 16 N/A
1:15 pm 13:15 Sunny 55 13 33 0.3 42 42 W 35 56 29.61 1003 10 16 N/A
1:35 pm 13:35 Sunny 56 13.5 32 0.1 40 40 W 43 69 29.61 1003 10 16 N/A
1:55 pm 13:55 Sunny 56 13.6 32 -0.1 39 39 W 36 57 29.62 1003 10 16 N/A
2:15 pm 14:15 Sunny 57 13.8 32 undefined 39 39 W 28 44 29.63 1003 10 16 N/A
2:35 pm 14:35 Sunny 58 14.5 32 0.2 38 38 WNW 29 46 29.63 1003 10 16 N/A
2:55 pm 14:55 Sunny 58 14.2 32 -0.2 37 37 W 28 44 29.64 1004 10 16 N/A
3:15 pm 15:15 Sunny 58 14.5 32 undefined 37 37 WNW 30 48 29.64 1004 10 16 N/A
3:35 pm 15:35 Sunny 58 14.6 31 -0.3 36 36 W 36 57 29.65 1004 10 16 N/A
3:55 pm 15:55 Sunny 58 14.7 32 -0.2 36 36 W 26 43 29.65 1004 10 16 N/A
4:15 pm 16:15 Sunny 58 14.6 32 -0.1 37 37 W 30 48 29.67 1005 10 16 N/A
4:35 pm 16:35 Sunny 59 15 32 0.1 36 36 W 29 46 29.68 1005 10 16 N/A
4:55 pm 16:55 Sunny 58 14.7 32 -0.1 37 37 W 29 46 29.68 1005 10 16 N/A
5:15 pm 17:15 Sunny 57 14.1 31 -0.6 37 37 W 29 46 29.69 1006 10 16 N/A
5:35 pm 17:35 Sunny 57 14 32 undefined 39 39 WNW 21 33 29.70 1006 10 16 N/A
5:55 pm 17:55 Sunny 56 13.5 31 -0.4 39 39 WNW 21 33 29.71 1006 10 16 N/A
6:15 pm 18:15 Sunny 55 12.9 32 0.2 42 42 WNW 14 22 29.72 1007 10 16 N/A
6:35 pm 18:35 Sunny 54 12.4 32 undefined 43 43 WNW 15 24 29.73 1007 10 16 N/A
6:55 pm 18:55 Sunny 52 11.2 33 0.4 48 48 WNW 13 20 29.76 1008 10 16 N/A
7:15 pm 19:15 Clear 50 10 33 0.6 52 52 WNW 12 19 29.78 1009 10 16 N/A
7:35 pm 19:35 Clear 49 9.2 33 0.8 56 56 WNW 9 15 29.79 1009 10 16 N/A
7:55 pm 19:55 Clear 48 8.8 33 0.6 57 57 WNW 7 11 29.80 1009 10 16 N/A
8:15 pm 20:15 Clear 48 9 32 0.2 54 54 WNW 10 17 29.82 1010 10 16 N/A
8:35 pm 20:35 Clear 48 8.7 32 0.1 55 55 WNW 12 19 29.83 1010 10 16 N/A
8:55 pm 20:55 Clear 49 9.2 31 -0.3 52 52 WNW 14 22 29.84 1010 10 16 N/A
9:15 pm 21:15 Clear 47 8.5 31 -0.3 54 54 WNW 15 24 29.86 1011 10 16 N/A
9:35 pm 21:35 Clear 46 8 31 -0.4 56 56 WNW 10 17 29.87 1011 10 16 N/A
9:55 pm 21:55 Clear 46 7.8 31 -0.5 56 56 WNW 10 17 29.87 1012 10 16 N/A
10:15 pm 22:15 Clear 45 7 31 -0.3 60 60 WNW 9 15 29.91 1013 10 16 N/A
10:35 pm 22:35 Clear 45 7 31 -0.5 59 59 W 8 13 29.93 1014 10 16 N/A
10:55 pm 22:55 Clear 42 5.8 32 -0.2 66 66 W 8 13 29.94 1014 10 16 N/A
11:15 pm 23:15 Clear 40 4.7 32 -0.1 71 71 WNW 10 17 29.95 1014 10 16 N/A
11:35 pm 23:35 Clear 40 4.5 31 -0.3 71 71 WNW 10 17 29.95 1014 10 16 N/A
11:55 pm 23:55 Clear 39 4.1 32 -0.1 74 74 WNW 8 13 29.95 1014 10 16 N/A

Powered by AerisWeather